date,batt_volt,AirTemp_C,Solar_kW,RH,Manual_BP,StationID,WS_ms,PTemp,WS_15min_max,Prog_Sig,Solar_Raw,Bar_mbar,Solar_MJ,Max_WS_2min,Pressure_Raw,Rain_mm,WD_15min_ave,Max_AirTemp_1min,WindDir,WS_15min_med,WS_15min_ave,Elevation_Correction
2019-10-01T00:01:49Z,13.03188,8.771378,0.0,68.42906,0,1156,1.7052,10.26807,3.4888,43690,0.0,1024.139,0.0,3.489,1022.338,0,347.451966491,8.84,3.970512,2.2344,2.2306887574,1.80078
2019-10-01T00:16:53Z,13.03188,8.737492,0.0,70.49651,0,1156,1.764,10.24548,3.4888,43690,0.0,1024.139,0.0,2.45,1022.338,0,348.16223414,8.84,21.60921,1.9404,1.96219058647,1.80078
2019-10-01T00:31:53Z,13.04292,8.364674,0.0,72.69952,0,1156,1.372,10.08733,2.5284,43690,0.0,1024.139,0.0,1.646,1022.338,0,16.1466046793,8.429999,0.1203186,1.372,1.38046626746,1.80078
2019-10-01T00:46:52Z,13.03743,8.297821,0.0,73.44658,0,1156,2.2148,10.10992,2.6264,43690,0.0,1024.139,0.0,2.352,1022.338,0,347.571909456,8.33,321.0642,1.4504,1.40830058698,1.80078
2019-10-01T01:01:52Z,13.03743,8.60384,0.0,71.75337,0,1156,2.254,10.08733,3.2144,43690,0.0,1023.588,0.0,3.214,1021.787,0,351.917878396,8.74,346.507,1.8816,1.87127810651,1.80078
2019-10-01T01:16:51Z,13.0319,8.739311,0.0,71.61764,0,1156,2.1756,10.06474,3.8612,43690,0.0,1023.588,0.0,3.136,1021.787,0,340.707818049,8.91,316.3053,2.3128,2.32497751479,1.80078
2019-10-01T01:31:50Z,13.03224,8.807057,0.0,73.92235,0,1156,1.7444,10.01955,3.0968,43690,0.0,1023.588,0.0,2.372,1021.787,0,320.317388814,8.91,321.9842,1.9796,1.96278343018,1.80078
2019-10-01T01:46:50Z,13.0323,9.043289,0.0,77.85241,0,1156,3.2144,10.04215,4.2336,43690,0.0,1023.588,0.0,3.175,1021.787,0,311.770548843,8.939999,303.5925,1.9404,1.98041183195,1.80078
2019-10-01T02:01:55Z,13.01534,9.686779,0.0,77.71609,0,1156,2.4304,10.42622,4.214,43690,0.0,1022.68,0.0,3.45,1020.879,0,301.43578612,9.75,305.3222,2.8322,2.77962588235,1.80078
2019-10-01T02:16:54Z,13.00835,9.851837,0.0,77.40422,0,1156,2.7244,10.85547,3.43,43690,0.0,1022.68,0.0,2.509,1020.879,0,298.25995211,9.92,275.0977,2.1168,2.12816567929,1.80078
2019-10-01T02:31:52Z,12.99659,9.746022,0.0,78.38049,0,1156,1.372,11.24407,2.7244,43690,0.0,1022.68,0.0,1.607,1020.879,0,300.626885174,9.849999,280.9935,1.1368,1.11140117574,1.80078
2019-10-01T02:46:51Z,12.99105,10.15251,0.0,75.56763,0,1156,2.1952,11.49485,3.8612,43690,0.0,1022.68,0.0,3.861,1020.879,0,304.170324823,10.25,282.7249,1.862,1.94956212899,1.80078
2019-10-01T03:01:51Z,12.98553,10.32195,0.0,75.83873,0,1156,2.3128,11.70269,4.0768,43690,0.0,1022.343,0.0,2.901,1020.542,0,304.865299759,10.39,292.5894,2.3716,2.34144615385,1.80078
2019-10-01T03:16:56Z,12.98001,10.22028,0.0,75.9065,0,1156,1.9992,12.00091,4.2924,43690,0.0,1022.343,0.0,3.175,1020.542,0,312.865033027,10.29,299.1095,2.1952,2.15934352824,1.80078
2019-10-01T03:31:55Z,12.98553,10.01628,0.0,78.27751,0,1156,5.096,12.18618,4.7432,43690,0.0,1022.343,0.0,3.9,1020.542,0,301.162516984,10.02,285.8247,2.2736,2.37484733728,1.80078
2019-10-01T03:46:54Z,12.97893,10.82523,0.0,78.33863,0,1156,3.626,12.34884,8.33,43690,0.0,1022.343,0.0,7.683001,1020.542,0,279.020289778,10.89,276.1775,5.7036,5.35636681065,1.80078
2019-10-01T04:01:52Z,12.97201,10.51287,0.0,81.6811,0,1156,7.114799,12.46406,7.6832,43690,0.0,1022.462,0.0,5.802,1020.661,0,290.447159,10.51,260.021,3.2144,3.48474081657,1.80078
2019-10-01T04:16:57Z,12.97687,10.85123,0.0,80.02038,0,1156,8.1732,12.5341,10.5644,43690,0.0,1022.462,0.0,10.51,1020.661,0,276.1352767,10.82,284.6015,7.497,6.71400352353,1.80078
2019-10-01T04:31:55Z,12.97049,11.08587,0.0,77.50959,0,1156,4.9392,12.60414,9.4276,43690,0.0,1022.462,0.0,8.58,1020.661,0,281.58976999,11.15,283.7217,7.742,7.55632173373,1.80078
2019-10-01T04:46:53Z,12.96512,11.01912,0.0,75.88502,0,1156,5.6056,12.71936,8.447599,43690,0.0,1022.462,0.0,6.507,1020.661,0,288.878003884,11.15,290.7507,6.0956,5.96756205917,1.80078
2019-10-01T05:01:57Z,12.96501,11.0183,0.0,74.46097,0,1156,3.6064,12.88428,6.5856,43690,0.0,1021.372,0.0,6.35,1019.572,0,292.817816135,11.09,287.6673,4.9784,4.99546352941,1.80078
2019-10-01T05:16:56Z,12.95913,11.15293,0.0,76.66164,0,1156,5.9976,12.97691,7.212799,43690,0.0,1021.372,0.0,6.448,1019.572,0,292.64928571,11.15,274.1451,5.3312,5.29002839645,1.80078
2019-10-01T05:31:54Z,12.95935,11.32204,0.0,76.6951,0,1156,8.3104,13.02436,9.074799,43690,0.0,1021.372,0.0,8.269999,1019.572,0,286.859083829,11.29,287.0355,5.9584,6.03645201183,1.80078
2019-10-01T05:46:58Z,12.96501,11.35608,0.0,76.22109,0,1156,8.5064,13.0718,9.133599,43690,0.0,1021.372,0.0,9.13,1019.572,0,279.616303096,11.42,276.1168,7.8302,7.70960211765,1.80078
2019-10-01T06:01:56Z,12.95907,11.52442,0.0,77.91332,0,1156,7.0952,13.21187,8.8004,43690,0.0,1021.11,0.0,8.349999,1019.309,0,282.062010896,11.56,278.9012,7.565599,7.44892757396,1.80078
2019-10-01T06:16:59Z,12.95355,11.42279,0.0,77.13418,0,1156,4.9196,13.3994,8.2908,43690,0.0,1021.11,0.0,7.095,1019.309,0,288.70672285,11.46,290.2776,6.2328,6.23279991176,1.80078
2019-10-01T06:31:57Z,12.94803,11.15178,0.0,76.11792,0,1156,2.9988,13.54172,6.468,43690,0.0,1021.11,0.0,4.586,1019.309,0,293.608067358,11.25,292.2979,4.6844,4.56749585207,1.80078
2019-10-01T06:46:56Z,12.95355,11.15178,0.0,74.55966,0,1156,4.5668,13.58917,5.782,43690,0.0,1021.11,0.0,5.645,1019.309,0,287.411063809,11.25,274.4757,4.7432,4.52145325444,1.80078
2019-10-01T07:02:00Z,12.95355,10.7114,0.0,76.0163,0,1156,1.5876,13.58917,5.4096,43690,0.0,1020.703,0.0,2.705,1018.903,0,312.919967934,10.85,336.8653,1.5974,1.99216705412,1.80078
2019-10-01T07:16:58Z,12.95355,10.27103,0.0,76.5583,0,1156,0.9799999,13.54172,2.3912,43690,0.0,1020.703,0.0,1.705,1018.903,0,5.20493613667,10.34,354.5191,1.0192,0.994960936095,1.80078
2019-10-01T07:31:56Z,12.95906,10.00002,0.0,75.33878,0,1156,1.9796,13.3994,2.2932,43690,0.0,1020.703,0.0,1.744,1018.903,0,13.6918336347,10.07,319.428,1.0192,0.984986978107,1.80078
2019-10-01T07:47:01Z,12.96458,10.0339,0.0,72.49326,0,1156,1.1564,13.23446,2.352,43690,0.0,1020.703,0.0,2.195,1018.903,0,351.938895659,10.1,10.48645,1.1564,1.13149646765,1.80078
2019-10-01T08:01:59Z,12.96502,10.06791,0.0,72.56119,0,1156,1.764,13.0944,2.646,43690,0.0,1019.974,0.0,2.136,1018.173,0,329.681568942,10.14,322.5796,1.5484,1.52311715385,1.80078
2019-10-01T08:16:58Z,12.96459,10.33991,0.0,72.73202,0,1156,1.9796,13.02436,3.528,43690,0.0,1019.974,0.0,2.176,1018.173,0,325.689653423,10.34,12.31465,1.862,1.87986035325,1.80078
2019-10-01T08:32:02Z,12.96503,9.83247,0.0,74.5285,0,1156,1.7248,13.00177,2.8224,43690,0.0,1019.974,0.0,1.882,1018.173,0,7.02235944242,10.07,34.82784,1.3524,1.38214587412,1.80078
2019-10-01T08:47:00Z,12.97033,9.695667,0.0,73.27316,0,1156,0.588,12.90687,2.3324,43690,0.0,1019.974,0.0,2.332,1018.173,0,25.6315513191,9.83,36.14978,1.3524,1.38382957988,1.80078
2019-10-01T09:01:59Z,12.97107,9.459408,0.0,73.6471,0,1156,1.6464,12.7668,3.234,43690,0.0,1020.309,0.0,2.607,1018.508,0,16.6665986877,9.63,351.0174,1.3524,1.39542721538,1.80078
2019-10-01T09:17:03Z,12.97672,9.731438,0.0,69.88826,0,1156,1.2348,12.65158,3.2144,43690,0.0,1020.309,0.0,2.548,1018.508,0,7.32081806569,9.8,27.56436,1.6366,1.59221176,1.80078
2019-10-01T09:32:02Z,12.97071,9.629951,0.0,71.0064,0,1156,1.4896,12.58154,3.0184,43690,0.0,1020.309,0.0,2.587,1018.508,0,9.78731057007,9.63,13.46954,1.47,1.53599052604,1.80078
2019-10-01T09:47:01Z,12.97651,9.290836,0.0,74.19033,0,1156,1.8816,12.51151,2.9988,43690,0.0,1020.309,0.0,2.43,1018.508,0,23.5369312107,9.26,39.54242,1.4504,1.50769230473,1.80078
2019-10-01T10:01:59Z,12.98744,9.224942,0.0004820687,73.41394,0,1156,1.0388,12.27881,2.5872,43690,0.03374481,1019.944,2.410344e-06,2.391,1018.143,0,25.7568647369,9.26,11.49756,1.1956,1.24419407751,1.80078
2019-10-01T10:16:59Z,12.9908,8.895924,0.003856819,75.39392,0,1156,0.0,12.07095,1.568,43690,0.2699773,1019.944,1.928409e-05,1.137,1018.143,0,10.4689439178,9.0,46.72119,0.3724,0.394667449112,1.80078
2019-10-01T10:32:04Z,12.98545,8.796951,0.02555115,75.39806,0,1156,1.3132,11.8631,2.7244,43690,1.78858,1019.944,0.0001277557,2.607,1018.143,0,28.1168874896,8.86,28.19786,1.2544,1.23664470118,1.80078
2019-10-01T10:47:03Z,12.98553,8.96645,0.04194192,73.73771,0,1156,1.1564,11.77047,3.2732,43690,2.935934,1019.944,0.0002097096,2.744,1018.143,0,34.7422764873,9.0,48.86512,1.8228,1.82929467219,1.80078
2019-10-01T11:02:02Z,12.98553,9.16977,0.07906291,73.0261,0,1156,1.6268,11.84051,3.1556,43690,5.534404,1019.903,0.0003953146,2.842,1018.102,0,41.6722950159,9.269999,17.61166,1.8032,1.81549348935,1.80078
2019-10-01T11:17:01Z,12.98553,9.440865,0.07134996,71.63673,0,1156,2.2736,12.02351,2.8028,43690,4.994497,1019.903,0.0003567498,2.705,1018.102,0,43.5381304659,9.469999,28.48661,1.7836,1.78545562012,1.80078
2019-10-01T11:32:00Z,12.98553,9.473881,0.08726083,70.68666,0,1156,2.1168,12.16358,3.332,43690,6.108258,1019.903,0.0004363042,3.234,1018.102,0,52.6537838005,9.54,33.51448,2.2148,2.26443786982,1.80078
2019-10-01T11:47:00Z,12.97325,9.674244,0.09496877,70.3775,0,1156,2.5676,12.37143,5.0176,43690,6.647814,1019.903,0.0004748438,3.43,1018.102,0,46.5413425121,9.74,44.41067,2.4108,2.48838816568,1.80078
2019-10-01T12:02:00Z,12.96486,9.462525,0.05254017,72.33047,0,1156,2.9204,12.65158,4.3708,43690,3.677812,1020.593,0.0002627008,3.371,1018.792,0,49.025654626,9.63,54.40945,2.7048,2.73866508876,1.80078
2019-10-01T12:17:00Z,12.95936,9.460068,0.06699938,73.1738,0,1156,1.9012,12.7668,4.116,43690,4.689956,1020.593,0.0003349969,3.626,1018.792,0,58.2297549754,9.49,74.1779,2.7832,2.83886863905,1.80078
2019-10-01T12:32:05Z,12.95992,9.496201,0.101704,72.22854,0,1156,2.156,12.85943,4.8804,43690,7.119282,1020.593,0.0005085202,4.528,1018.792,0,63.6499092479,9.46,77.38042,3.234,3.29833411765,1.80078
2019-10-01T12:47:05Z,12.95909,9.460163,0.1513511,68.46506,0,1156,2.9008,12.97691,4.9784,43690,10.59457,1020.593,0.0007567552,4.743,1018.792,0,63.2789498713,9.559999,67.51549,3.4104,3.42918816568,1.80078
2019-10-01T13:02:04Z,12.95369,10.00203,0.1701494,63.92536,0,1156,3.9396,13.21187,4.4884,43690,11.91046,1020.4,0.000850747,3.763,1018.599,0,69.5780509582,10.0,40.14356,2.8224,2.86217988166,1.80078
2019-10-01T13:17:03Z,12.94803,10.1695,0.1460489,67.10722,0,1156,1.372,13.54172,3.626,43690,10.22343,1020.4,0.0007302446,1.803,1018.599,0,72.3112496184,10.2,103.133,2.0384,1.97600473195,1.80078
2019-10-01T13:32:02Z,12.94251,10.27103,0.1831637,64.3293,0,1156,3.1164,13.82413,3.528,43690,12.82146,1020.4,0.0009158183,2.626,1018.599,0,79.1317605227,10.47,53.49054,1.4896,1.58574437456,1.80078
2019-10-01T13:47:02Z,12.93148,10.40653,0.1643653,65.98919,0,1156,1.4504,14.1088,3.2536,43690,11.50557,1020.4,0.0008218264,1.607,1018.599,0,72.2019920322,10.47,90.52985,1.1368,1.24686152604,1.80078
2019-10-01T14:02:03Z,12.937,10.23715,0.1055601,64.43092,0,1156,2.4304,14.32342,2.5088,43690,7.389208,1020.46,0.0005278006,2.136,1018.659,0,72.7081171396,10.37,53.29813,1.3132,1.24373017396,1.80078
2019-10-01T14:17:03Z,12.937,10.50815,0.1802716,65.95532,0,1156,2.1364,14.39572,2.45,43690,12.61901,1020.46,0.000901358,2.254,1018.659,0,54.8186982873,10.54,37.90517,1.6072,1.60198106213,1.80078
2019-10-01T14:32:03Z,12.93148,10.98241,0.1706314,61.55152,0,1156,1.0192,14.61261,2.254,43690,11.9442,1020.46,0.000853157,1.509,1018.659,0,40.6217779274,11.02,76.67618,1.372,1.33384378284,1.80078
2019-10-01T14:47:03Z,12.92534,11.15108,0.2029218,57.45181,0,1156,0.0,14.99669,1.9012,43690,14.20453,1020.46,0.001014609,1.156,1018.659,0,29.9671838257,11.19,4.088699,0.6664,0.600525433728,1.80078
2019-10-01T15:02:03Z,12.90677,12.12382,0.2626618,62.14893,0,1156,0.0,15.48242,1.1956,43690,18.38633,1019.072,0.001313309,1.117,1017.272,0,262.902342965,12.09,220.6287,0.0,0.228937273373,1.80078
2019-10-01T15:17:04Z,12.90511,12.1507,0.2491275,57.63668,0,1156,1.0584,16.19182,0.9604,43690,17.43893,1019.072,0.001245638,0.96,1017.272,0,246.230540268,12.32,244.3541,0.0,0.269181059763,1.80078
2019-10-01T15:32:04Z,12.89953,12.04879,0.3170558,58.65224,0,1156,0.0,16.88542,2.0384,43690,22.19391,1019.072,0.001585279,0.274,1017.272,0,244.399765379,12.15,238.8948,0.8428,0.722764483432,1.80078
2019-10-01T15:47:04Z,12.8885,12.6922,0.3888506,57.77178,0,1156,0.7448,17.46379,2.1168,43690,27.21954,1019.072,0.001944253,2.117,1017.272,0,241.955092998,12.83,255.4126,0.2548,0.376923073964,1.80078
2019-10-01T16:02:05Z,12.86859,14.33883,0.5285674,58.77396,0,1156,0.882,18.2003,2.4892,43690,36.99972,1019.056,0.002642837,1.313,1017.255,0,268.097441931,14.38,290.9287,1.078,1.04088756568,1.80078
2019-10-01T16:17:05Z,12.85108,14.43483,0.5380636,57.48155,0,1156,1.6268,19.20793,2.4892,43690,37.66445,1019.056,0.002690318,1.999,1017.255,0,261.294991607,14.3,269.147,1.3132,1.34138223964,1.80078
2019-10-01T16:32:04Z,12.83451,13.24984,0.4132858,61.50983,0,1156,1.0192,20.18166,2.5088,43690,28.93,1019.056,0.002066429,2.156,1017.255,0,252.825557305,13.05,254.6771,1.5876,1.6329467432,1.80078
2019-10-01T16:47:04Z,12.8283,14.32785,0.4942084,54.26016,0,1156,2.3324,20.79844,2.4304,43690,34.59459,1019.056,0.002471042,2.195,1017.255,0,261.024449646,14.94,240.7374,1.6464,1.56660827988,1.80078
2019-10-01T17:02:05Z,12.8152,14.28718,0.49564,57.60398,0,1156,2.058,21.31355,2.8028,43690,34.6948,1017.325,0.0024782,2.587,1015.524,0,251.063390535,14.02,260.748,1.8424,1.8054035497,1.80078
2019-10-01T17:17:10Z,12.8082,15.60103,0.4974521,51.40472,0,1156,1.6072,21.78121,2.9204,43690,34.82165,1017.325,0.002487261,2.019,1015.524,0,256.494253809,15.97,273.7902,1.7052,1.69090352882,1.80078
2019-10-01T17:32:09Z,12.80261,14.65315,0.4478172,58.4095,0,1156,1.5288,22.3641,2.4108,43690,31.34721,1017.325,0.002239086,1.803,1015.524,0,289.223097364,14.89,308.8681,1.5484,1.54341301479,1.80078
2019-10-01T17:47:07Z,12.80261,13.97633,0.2807274,62.87651,0,1156,1.6072,22.41832,3.4496,43690,19.65092,1017.325,0.001403637,3.332,1015.524,0,287.136004465,14.25,289.9828,2.2148,2.20934911183,1.80078
2019-10-01T18:02:07Z,12.81915,13.09647,0.2373904,66.80206,0,1156,2.2932,21.78121,4.5668,43690,16.61733,1017.009,0.001186952,2.744,1015.208,0,280.166201293,13.3,275.6387,2.5676,2.60807573964,1.80078
2019-10-01T18:17:06Z,12.82466,13.43488,0.2345593,68.83252,0,1156,1.5288,21.09666,3.1164,43690,16.41915,1017.009,0.001172796,2.744,1015.208,0,275.1180978,13.4,267.8058,2.1364,2.08954556213,1.80078
2019-10-01T18:32:11Z,12.83224,12.73254,0.1363164,69.11415,0,1156,1.2348,20.50248,2.5676,43690,9.542145,1017.009,0.0006815818,1.764,1015.208,0,267.88554241,12.83,252.6366,1.4504,1.50620235,1.80078
2019-10-01T18:47:09Z,12.84534,12.40254,0.1825583,64.58917,0,1156,2.1168,19.83825,2.5872,43690,12.77908,1017.009,0.0009127917,2.587,1015.208,0,241.647335773,12.57,232.9208,1.6856,1.69035502722,1.80078
2019-10-01T19:02:08Z,12.85656,12.74201,0.2336169,62.32224,0,1156,2.156,19.31185,2.4108,43690,16.35318,1015.477,0.001168084,1.862,1013.676,0,230.500715369,12.81,220.1624,1.666,1.67156686331,1.80078
2019-10-01T19:17:07Z,12.85105,12.84359,0.1864118,64.82734,0,1156,2.9204,19.12885,3.724,43690,13.04883,1015.477,0.000932059,2.626,1013.676,0,240.099225129,12.91,259.0514,2.156,2.22860118343,1.80078
2019-10-01T19:32:11Z,12.85656,12.47121,0.1382434,66.96004,0,1156,1.274,18.84192,2.9792,43690,9.677038,1015.477,0.000691217,1.176,1013.676,0,221.300724171,12.47,210.5964,0.89179995,1.13541646529,1.80078
2019-10-01T19:47:11Z,12.86207,12.47121,0.1112691,67.19701,0,1156,0.0,18.48045,1.274,43690,7.788835,1015.477,0.0005563453,0.0,1013.676,0,228.499567664,12.51,226.6039,0.0,0.155060349112,1.80078
2019-10-01T20:02:10Z,12.86759,12.30195,0.0905733,65.53824,0,1156,0.6076,18.17319,1.1956,43690,6.340131,1014.99,0.0004528665,0.0,1013.189,0,229.604151298,12.47,199.2037,0.0,0.0783999994083,1.80078
2019-10-01T20:17:10Z,12.8731,12.43736,0.07034393,69.63438,0,1156,0.0,17.79138,0.7252,43690,4.924075,1014.99,0.0003517196,0.0,1013.189,0,176.556820191,12.47,149.5951,0.0,0.107857988166,1.80078
2019-10-01T20:32:09Z,12.875,12.17694,0.08962168,66.83795,0,1156,0.0,17.46379,0.0,43690,6.273518,1014.99,0.0004481084,0.0,1013.189,0,102.524433303,12.28,93.75598,0.0,0.0,1.80078
2019-10-01T20:47:08Z,12.88831,12.42031,0.03758404,67.99741,0,1156,0.0,17.2356,0.0,43690,2.630883,1014.99,0.0001879202,0.0,1013.189,0,142.433281076,12.42,167.0982,0.0,0.0,1.80078
2019-10-01T21:02:08Z,12.894,12.15034,0.01300987,65.83134,0,1156,0.0,16.91027,1.5876,43690,0.9106906,1014.188,6.504933e-05,0.0,1012.387,0,201.017361273,12.18,162.1483,0.0,0.114236686391,1.80078
2019-10-01T21:17:08Z,12.89401,11.87945,0.01782834,71.92686,0,1156,0.0,16.58719,0.0,43690,1.247984,1014.188,8.914167e-05,0.0,1012.387,0,96.2599854521,12.08,40.70538,0.0,0.0,1.80078
2019-10-01T21:32:09Z,12.91055,11.87945,0.005300316,68.87911,0,1156,0.2156,16.26638,0.9995999,43690,0.3710221,1014.188,2.650158e-05,0.216,1012.387,0,48.3570481898,11.88,233.0762,0.0,0.0408236680473,1.80078
2019-10-01T21:47:10Z,12.91055,11.98104,0.002409234,66.50864,0,1156,3.4888,15.92071,3.5476,43690,0.1686464,1014.188,1.204617e-05,3.489,1012.387,0,237.841751153,11.98,228.9888,2.352,2.18313845917,1.80078
2019-10-01T22:02:10Z,12.92158,11.67626,0.0004818736,69.96275,0,1156,0.8035999,15.62701,3.724,43690,0.03373115,1013.944,2.409368e-06,1.842,1012.144,0,231.601864392,11.85,190.3752,2.0188,1.96046390414,1.80078
2019-10-01T22:17:10Z,12.93261,11.23673,0.0,73.55333,0,1156,0.1176,15.33557,1.8032,43690,0.0,1013.944,0.0,0.804,1012.144,0,142.939825498,11.27,169.7002,0.3332,0.387940822485,1.80078
2019-10-01T22:32:10Z,12.93428,11.44421,0.0,73.8304,0,1156,0.0,15.06898,1.8032,43690,0.0,1013.944,0.0,0.216,1012.144,0,104.414415817,11.51,128.452,0.0,0.135808282249,1.80078
2019-10-01T22:47:11Z,12.93605,11.48385,0.0,73.39836,0,1156,0.294,14.94924,1.7444,43690,0.0,1013.944,0.0,1.372,1012.144,0,69.0387385474,11.62,57.37943,0.0,0.100203549704,1.80078
2019-10-01T23:02:11Z,12.93627,11.76089,0.0,69.78235,0,1156,0.4508,14.85209,1.9012,43690,0.0,1011.588,0.0,1.901,1009.787,0,82.7834314685,11.86,140.2666,0.0,0.354191713609,1.80078
2019-10-01T23:17:12Z,12.93686,11.92971,0.0,67.07165,0,1156,0.294,14.85209,5.88,43690,0.0,1011.588,0.0,3.116,1009.787,0,224.868259229,12.03,295.6342,1.0584,1.29835502604,1.80078
2019-10-01T23:32:12Z,12.93123,12.50524,0.0,61.21094,0,1156,3.3712,14.92439,5.9976,43690,0.0,1011.588,0.0,5.586,1009.787,0,236.382854984,12.51,212.6571,2.646,2.52364496746,1.80078
2019-10-01T23:47:11Z,12.93081,12.36746,0.0,61.81799,0,1156,2.4304,15.02153,5.9584,43690,0.0,1011.588,0.0,4.116,1009.787,0,243.818285554,12.4,237.4671,2.9204,2.96864615385,1.80078
2019-10-02T00:02:12Z,12.93035,12.60093,0.0,56.59766,0,1156,4.7628,15.09383,6.8208,43690,0.0,1010.482,0.0,5.998,1008.681,0,234.271195972,12.67,223.4788,4.0572,3.96035975148,1.80078
2019-10-02T00:17:12Z,12.92915,12.56618,0.0,59.13696,0,1156,5.7036,15.19098,7.7812,43690,0.0,1010.482,0.0,6.703,1008.681,0,226.760723731,12.67,228.6693,5.2724,5.21626744379,1.80078
2019-10-02T00:32:12Z,12.92893,12.93434,0.0,62.95901,0,1156,5.1744,15.26327,9.4668,43690,0.0,1010.482,0.0,6.801,1008.681,0,235.844137553,12.97,227.4961,6.2328,6.31630286982,1.80078
2019-10-02T00:47:13Z,12.92196,13.00277,0.0,61.5374,0,1156,6.9972,15.36042,9.408,43690,0.0,1010.482,0.0,7.801001,1008.681,0,236.505119688,13.04,237.6224,6.762,6.81952408876,1.80078
2019-10-02T01:02:13Z,12.92169,12.96353,0.0,64.64667,0,1156,4.508,15.45757,8.5064,43690,0.0,1008.912,0.0,6.448,1007.111,0,238.476569056,12.96,234.3284,6.1152,6.00908160947,1.80078
2019-10-02T01:17:13Z,12.92159,12.99706,0.0,67.55854,0,1156,4.998,15.50502,8.3104,43690,0.0,1008.912,0.0,7.664001,1007.111,0,241.977514708,13.0,261.8566,6.781599,6.77800460355,1.80078
2019-10-02T01:32:13Z,12.91611,12.96311,0.0,65.52661,0,1156,6.37,15.57957,9.564799,43690,0.0,1008.912,0.0,8.979999,1007.111,0,241.798387937,13.06,244.1362,6.958,7.04672176331,1.80078
2019-10-02T01:47:13Z,12.91056,13.03084,0.0,70.33529,0,1156,7.5264,15.65187,9.5844,43690,0.0,1008.912,0.0,7.860001,1007.111,0,240.975970404,13.17,239.3276,7.016799,6.96994538462,1.80078
2019-10-02T02:02:14Z,12.91056,13.03084,0.0,71.3512,0,1156,8.251599,15.72642,10.3684,43690,0.0,1007.28,0.0,10.37,1005.479,0,245.250544765,13.1,253.4891,7.761599,7.81541283432,1.80078
2019-10-02T02:17:14Z,12.91056,13.13244,0.0,75.71964,0,1156,7.643999,15.74901,9.819599,43690,0.0,1007.28,0.0,9.469999,1005.479,0,245.672545561,13.27,238.7746,7.742,7.67229802959,1.80078
2019-10-02T02:32:14Z,12.91056,12.99698,0.0,79.9865,0,1156,6.174,15.70157,9.956799,43690,0.0,1007.28,0.0,8.86,1005.479,0,253.554082432,12.96,246.6367,8.0752,8.07589561538,1.80078
2019-10-02T02:47:14Z,12.91056,13.30175,0.0,79.54626,0,1156,9.113999,15.74901,9.9764,43690,0.0,1007.28,0.0,9.62,1005.479,0,250.655534935,13.37,242.4051,7.8008,7.7578885503,1.80078
2019-10-02T03:02:15Z,12.91056,13.06471,0.0,82.62788,0,1156,7.467599,15.82357,10.3096,43690,0.0,1005.736,0.0,10.05,1003.935,0,251.972140615,13.17,235.7211,8.33,8.27073584024,1.80078
2019-10-02T03:17:15Z,12.90504,12.86152,0.0,86.25131,0,1156,6.958,15.89586,9.8588,43690,0.0,1005.736,0.0,9.53,1003.935,0,252.900113781,12.83,265.6791,7.938,7.90633825444,1.80078
2019-10-02T03:32:15Z,12.90504,12.96311,0.0,87.23336,0,1156,7.9184,15.87327,10.2116,43690,0.0,1005.736,0.0,10.21,1003.935,0,253.913357351,12.96,253.4891,7.663599,7.68957845562,1.80078
2019-10-02T03:47:16Z,12.91056,13.30175,0.0,86.38677,0,1156,8.486799,15.89586,10.094,43690,0.0,1005.736,0.0,10.09,1003.935,0,251.806081234,13.44,250.3394,8.251599,8.17053230178,1.80078
2019-10-02T04:02:21Z,12.90504,13.67426,0.0,85.84494,0,1156,8.1144,15.97042,10.8976,43690,0.0,1004.679,0.0,9.78,1002.879,0,250.037931378,13.67,247.6466,8.5456,8.48103512353,1.80078
2019-10-02T04:17:19Z,12.89953,13.9113,0.0,86.3529,0,1156,9.2316,16.09242,12.1128,43690,0.0,1004.679,0.0,10.13,1002.879,0,250.672198602,13.95,255.653,9.1532,9.06090305917,1.80078
2019-10-02T04:32:18Z,12.89953,13.9113,0.0,86.4545,0,1156,8.5848,16.26638,10.6232,43690,0.0,1004.679,0.0,9.7,1002.879,0,254.410518863,14.11,257.0716,8.9768,8.9039665858,1.80078
2019-10-02T04:47:17Z,12.89401,14.18221,0.0,86.7254,0,1156,8.427999,16.46293,10.878,43690,0.0,1004.679,0.0,9.979999,1002.879,0,253.459352575,14.35,259.7163,8.8984,8.9422387929,1.80078
2019-10-02T05:02:17Z,12.8885,14.21608,0.0,87.67359,0,1156,8.1144,16.6369,10.9956,43690,0.0,1003.623,0.0,9.13,1001.822,0,263.397181712,14.35,260.7983,8.486799,8.56508378698,1.80078
2019-10-02T05:17:17Z,12.8885,13.87744,0.0,92.00817,0,1156,7.4284,16.7363,9.9176,43690,0.0,1003.623,0.0,9.45,1001.822,0,265.371412874,14.05,266.5927,8.055599,8.13805891124,1.80078
2019-10-02T05:32:17Z,12.8885,13.77585,0.0,94.27706,0,1156,8.8004,16.71145,9.525599,43690,0.0,1003.623,0.0,8.679999,1001.822,0,266.920128475,13.81,268.2758,7.9772,7.89021752663,1.80078
2019-10-02T05:47:18Z,12.8885,13.9113,0.0,95.3607,0,1156,8.427999,16.6866,9.9764,43690,0.0,1003.623,0.0,9.719999,1001.822,0,264.803419448,13.98,269.6703,8.231999,8.28337730769,1.80078
2019-10-02T06:02:23Z,12.8885,14.04676,0.0,96.07184,0,1156,6.9972,16.7363,9.937199,43690,0.0,1002.404,0.0,8.33,1000.603,0,268.112999967,14.11,273.5172,8.427999,8.38049862941,1.80078
2019-10-02T06:17:22Z,12.89953,13.97903,0.0,96.44434,0,1156,6.6444,16.7363,8.859199,43690,0.0,1002.404,0.0,7.722001,1000.603,0,274.801515123,14.11,277.7489,7.2912,7.33573468639,1.80078
2019-10-02T06:32:20Z,12.89401,14.11449,0.0,96.81684,0,1156,7.643999,16.78601,8.408401,43690,0.0,1002.404,0.0,8.15,1000.603,0,280.586075368,14.18,288.2798,6.664,6.7011123432,1.80078
2019-10-02T06:47:24Z,12.89401,14.24994,0.0,97.05389,0,1156,6.5072,16.83571,7.7028,43690,0.0,1002.404,0.0,6.742,1000.603,0,282.083045575,14.35,281.8362,6.4386,6.39190577059,1.80078
2019-10-02T07:02:22Z,12.8885,14.82563,0.0,97.39254,0,1156,8.0948,16.95997,11.662,43690,0.0,1001.266,0.0,11.66,999.4651,0,277.664730453,14.89,280.7062,9.6824,9.14612528402,1.80078
2019-10-02T07:17:25Z,12.88298,14.89336,0.0,97.52798,0,1156,13.5632,17.13619,13.5632,43690,0.0,1001.266,0.0,13.05,999.4651,0,281.351888425,14.89,285.2023,10.8388,10.9029034706,1.80078
2019-10-02T07:32:23Z,12.88298,14.85949,0.0,97.66344,0,1156,6.1348,17.28756,14.0532,43690,0.0,1001.266,0.0,9.09,999.4651,0,282.805815307,14.89,282.1969,9.956799,9.98417033728,1.80078